Location: Unspecified
(0.0000°N, 0.0000°E)
Time: 16:59:27
(UTC+00:00)

HO-68 - Pass Details

Date: 05 June 2023
Orbit: 1193 x 1204 km, 100.3° (Epoch: 28 September)

Event Time Altitude Azimuth Distance (km) Brightness Sun altitude
Rises 04:26:07 0° 338° (NNW) 4,089 ? -21.2°
Reaches altitude 10° 04:30:14 10° 315° (NW) 3,126 ? -20.3°
Enters shadow 04:32:42 14° 295° (WNW) 2,840 ? -19.7°
